Wind_Speed
123 127 130 134 137 140 143 146 148 150 152 153 154 155 155 156 156 156 157 157 158 158 159 160 160 161 161 161 162 162 162 162 162 162 162 162 163 163 164 164 165 166 166 166 166 165 164 163 162 161 160 159 158 157 157 156 155 154 153 152 151 150 150 149 149 149 148 147 146 145 145 144 143 142 141 141 141 141 140 140 139 139 139 139 139
114 118 122 126 129 133 136 139 141 143 146 148 150 152 153 154 156 156 157 158 159 160 161 161 162 162 163 162 163 163 163 163 163 163 163 163 163 163 163 164 164 164 163 163 162 161 160 159 158 158 157 156 156 155 155 154 154 153 152 152 151 150 150 149 149 149 148 147 146 145 144 143 142 141 140 140 140 140 140 140 140 139 139 138 138
108 111 115 119 122 126 129 132 135 137 139 141 143 145 147 149 151 152 154 155 156 157 158 159 160 160 160 161 161 161 161 161 161 161 161 160 160 160 160 160 159 159 158 158 157 157 156 155 155 155 155 154 154 154 153 153 152 152 151 151 150 150 149 149 148 148 147 147 146 145 144 143 142 141 140 140 140 140 140 140 140 139 138 138 137
105 108 111 113 117 120 124 126 129 132 134 137 138 140 142 144 145 147 148 149 150 152 153 153 154 154 155 155 156 156 156 156 156 156 156 155 155 155 154 154 154 154 154 154 153 153 153 153 152 153 152 152 152 152 151 151 151 150 150 149 149 149 148 148 147 146 146 145 145 144 144 143 142 142 141 140 140 140 140 139 139 139 138 137 136
104 106 108 111 113 116 119 121 124 126 129 131 133 135 136 138 140 142 143 144 145 146 147 147 148 148 149 149 149 150 150 150 150 150 150 150 150 150 150 150 150 150 150 150 150 150 150 150 150 150 150 149 149 149 149 149 148 148 148 148 147 147 147 146 146 145 145 144 144 144 144 144 143 142 141 140 140 140 139 139 139 138 137 136 136
103 105 106 109 111 113 115 117 119 121 123 125 127 128 130 132 133 135 137 138 140 141 142 142 143 143 143 144 144 144 145 145 145 145 145 145 145 145 145 146 146 147 147 147 147 146 146 146 146 146 146 146 146 146 146 146 146 145 145 145 145 145 145 145 145 145 144 144 144 144 143 143 142 141 141 140 139 139 138 138 137 136 135 134 134
102 104 105 107 109 110 112 113 115 117 118 120 121 123 124 126 127 129 130 132 133 134 135 135 136 136 137 137 137 138 138 139 139 140 140 140 140 140 141 141 142 142 142 142 142 142 142 142 142 142 142 142 142 142 142 143 142 143 143 143 143 143 144 144 144 144 143 143 142 142 142 141 140 140 139 138 137 136 135 134 134 134 133 132 132
101 103 105 106 108 109 110 111 112 114 115 116 117 118 120 121 122 124 124 125 126 126 127 127 128 129 129 130 130 131 132 132 133 134 134 134 134 134 134 135 136 136 136 137 137 137 137 137 138 138 138 138 139 139 140 140 140 140 141 141 141 142 142 142 142 141 141 141 140 139 139 138 138 137 136 135 134 133 132 131 130 130 130 130 131
100 102 104 105 106 107 108 109 110 111 112 113 114 115 116 117 118 119 119 120 120 120 121 122 122 123 124 124 125 125 126 127 127 128 128 128 128 128 129 130 130 131 131 132 132 133 133 134 134 134 135 135 136 137 137 138 138 138 138 139 139 139 140 139 139 139 138 138 137 137 136 135 135 134 133 132 131 130 130 129 128 127 127 127 128
99 100 102 104 105 105 106 107 108 109 110 110 111 112 112 113 114 114 115 116 116 116 117 117 118 118 119 119 120 120 121 121 122 123 123 123 123 124 125 126 126 127 128 128 129 130 131 131 132 132 133 133 134 135 135 136 136 136 136 136 136 136 136 136 136 135 135 135 134 134 133 132 132 131 130 129 128 128 128 127 126 125 125 125 126
98 99 101 102 103 104 105 105 106 107 108 108 108 109 109 110 111 111 112 113 113 113 113 114 114 115 115 115 116 117 117 118 119 120 120 120 120 120 122 123 124 124 125 126 127 128 128 129 130 130 131 131 132 132 133 133 134 134 134 133 133 133 133 133 133 133 132 132 132 131 130 129 129 128 127 127 126 126 126 125 124 123 123 124 124
97 98 99 100 101 102 103 103 104 105 105 106 106 107 107 108 109 109 110 110 111 111 111 111 112 112 113 114 114 115 116 116 117 118 118 118 118 119 120 121 122 123 124 124 125 126 127 127 128 128 129 129 130 131 131 132 132 132 131 131 131 131 131 131 130 130 130 130 129 128 127 126 126 126 125 125 124 124 124 124 123 122 122 121 121
97 97 98 99 99 100 101 102 103 103 104 105 105 106 106 107 107 108 108 109 109 109 110 110 110 111 112 112 113 114 115 116 117 118 118 118 118 118 119 120 121 122 122 123 123 124 125 126 126 127 127 128 128 129 129 130 130 130 130 129 129 129 129 128 128 127 127 126 126 126 125 125 124 124 124 123 122 122 122 122 121 120 120 120 120
95 96 97 98 98 99 99 100 101 102 102 104 104 105 105 106 106 107 107 107 108 108 109 109 110 110 111 112 113 113 114 115 116 117 118 117 117 117 118 119 120 121 121 122 122 123 123 124 125 126 126 126 127 127 128 129 129 129 128 127 127 127 127 126 125 125 124 123 123 123 123 123 123 123 122 121 121 120 120 120 119 119 119 119 119
93 94 95 96 97 98 98 99 100 100 101 102 103 103 104 104 105 106 106 107 107 108 108 109 109 110 110 111 111 112 112 113 114 115 116 116 116 116 117 118 119 120 120 121 121 122 122 123 123 124 125 125 125 126 127 128 128 128 127 126 126 126 125 124 123 123 122 122 121 121 121 121 121 120 120 119 119 118 118 118 117 117 117 117 117
91 92 93 94 95 96 97 98 99 99 100 101 101 102 102 103 103 104 105 105 106 106 107 107 108 108 108 109 109 110 111 111 112 114 115 116 116 115 116 117 118 119 120 120 121 121 122 122 123 123 124 124 124 124 125 126 127 126 125 125 124 124 123 122 121 121 121 120 119 119 119 119 119 118 118 117 116 116 116 116 116 115 115 115 115
89 90 91 92 93 94 95 96 97 98 99 99 100 100 100 101 101 102 102 103 103 104 105 105 106 106 107 108 108 109 110 110 111 112 114 115 115 115 116 117 118 119 120 120 121 121 122 122 122 122 122 122 122 122 123 124 124 124 123 123 123 122 121 120 120 119 119 118 118 117 117 117 117 116 116 115 114 114 114 114 113 113 112 112 111
86 88 89 90 91 92 93 94 95 95 96 97 97 98 98 99 99 100 100 101 102 102 103 104 105 105 106 107 108 108 109 110 111 112 113 114 115 115 116 116 118 119 120 120 120 121 121 121 121 121 120 120 120 119 120 121 122 121 121 121 121 121 120 119 119 118 117 117 116 115 115 115 115 115 115 114 113 112 111 110 110 109 109 108 107
83 85 86 87 89 89 90 91 92 93 94 94 95 96 96 97 98 98 99 100 101 101 102 103 104 104 105 106 107 108 109 110 110 112 113 114 114 115 115 115 116 117 118 118 119 119 119 119 118 118 118 118 117 117 117 118 119 118 118 118 119 119 118 118 117 117 117 116 115 114 114 113 113 113 112 111 110 109 108 106 106 105 104 103 103
80 81 82 84 85 86 87 88 89 90 91 92 93 94 95 95 96 97 98 99 100 100 101 102 103 104 105 106 107 108 108 109 110 111 112 113 114 114 114 113 113 114 114 115 114 115 115 115 116 116 116 116 115 115 115 115 116 116 115 115 116 117 117 117 116 116 116 116 115 114 112 111 110 109 108 107 105 104 103 102 101 100 99 99 98
76 77 79 80 81 83 84 85 86 87 88 89 91 91 93 93 94 95 96 97 98 99 100 101 102 103 104 105 106 107 107 108 109 110 110 111 112 112 111 110 109 109 110 110 110 111 111 112 113 114 114 114 114 114 113 113 113 113 113 114 114 115 115 116 115 115 115 114 113 112 110 109 107 106 104 103 101 99 98 98 96 95 95 94 94
73 74 75 77 78 79 81 82 83 84 86 87 88 89 91 92 93 94 95 96 97 98 99 100 100 101 102 103 104 104 105 106 106 106 107 107 107 108 107 106 106 106 106 107 108 108 109 110 111 111 112 112 112 112 112 112 112 112 112 112 112 112 113 113 113 113 112 111 110 109 107 105 104 103 101 100 98 96 95 95 94 92 92 91 90
71 72 73 74 75 77 78 79 80 82 83 84 86 87 88 90 91 92 93 94 95 95 96 97 98 98 99 100 100 101 101 102 102 102 103 103 103 104 105 105 105 104 105 105 105 106 107 108 109 110 110 110 110 110 111 111 111 111 110 110 110 109 109 109 109 109 108 107 106 105 103 102 101 100 99 97 96 95 94 93 92 91 90 90 88
69 70 71 72 74 75 76 77 78 79 81 82 83 84 86 87 88 89 90 91 92 92 93 94 95 95 96 96 97 98 98 99 99 99 100 100 101 102 103 104 104 104 104 104 104 105 105 106 107 108 108 108 108 108 108 109 109 108 108 108 107 106 105 105 105 104 103 103 102 101 99 98 97 97 96 95 94 93 93 92 91 90 89 89 87
68 69 70 71 73 74 75 76 77 78 80 81 82 83 84 85 85 86 87 88 88 89 90 91 92 92 93 94 94 95 96 96 97 98 98 99 100 101 101 102 103 103 103 104 104 104 104 105 105 106 106 107 107 106 106 106 106 105 105 104 103 102 101 101 100 100 99 98 98 97 96 95 94 94 93 93 92 91 91 92 91 89 88 88 86
68 69 70 71 72 73 74 75 76 77 78 79 80 80 81 82 82 83 84 85 85 86 87 88 89 90 91 92 93 94 95 96 96 97 97 98 99 100 101 101 101 102 102 102 103 103 103 103 104 104 105 105 105 105 104 103 102 101 100 100 99 98 97 97 97 96 96 95 95 94 93 92 92 91 90 90 89 88 89 89 89 88 86 86 85
68 68 69 70 71 72 72 73 74 75 75 76 77 77 78 79 79 80 81 82 83 84 85 86 87 88 90 91 92 93 94 95 96 96 97 98 99 99 99 100 100 100 100 100 101 101 102 102 102 103 103 103 103 102 101 100 99 98 96 96 95 94 94 94 94 94 93 93 93 92 91 90 89 89 88 87 86 85 85 86 86 86 84 83 82
66 67 67 68 69 70 70 71 71 72 72 73 74 74 75 76 77 78 79 80 81 83 84 85 86 88 89 91 92 93 94 95 95 95 96 96 97 97 98 98 98 98 98 98 99 100 101 101 101 101 101 100 100 99 99 98 96 95 93 92 91 91 91 91 91 91 91 91 90 90 89 88 87 86 85 84 83 82 82 82 82 82 82 81 80
65 66 66 67 67 67 68 68 69 70 70 71 72 73 74 75 76 77 78 80 81 82 84 85 86 88 89 91 91 92 93 94 94 94 94 95 96 96 96 96 96 96 97 98 98 99 99 100 99 99 98 98 97 97 96 95 94 92 91 90 89 88 88 88 89 89 89 89 88 87 86 86 85 84 83 82 81 80 79 80 80 80 79 78 77
64 64 65 65 65 66 66 67 68 69 69 70 71 72 73 74 75 77 78 80 81 83 84 85 87 88 89 90 91 91 92 92 93 93 93 94 94 94 95 95 95 96 96 97 98 98 98 98 97 96 95 95 95 94 93 92 91 90 89 88 87 86 86 86 86 87 87 86 86 85 84 84 84 83 82 81 80 79 78 78 78 77 76 76 75
63 63 64 64 64 65 66 67 68 68 69 70 71 72 73 74 76 77 79 80 81 83 84 85 86 87 88 89 90 91 91 91 91 92 92 93 93 94 95 95 95 95 96 96 97 96 96 96 95 94 92 92 91 91 90 90 89 88 87 86 84 83 83 83 83 84 84 84 83 82 81 81 81 81 80 79 79 78 77 76 75 74 74 73 72
62 63 63 63 64 65 66 67 68 69 70 71 72 73 74 75 76 78 79 80 81 83 84 85 86 87 88 89 90 90 90 90 90 90 91 92 93 94 95 95 95 95 95 95 95 94 94 93 93 91 90 89 89 88 88 87 87 86 85 84 83 81 80 80 80 81 81 81 81 79 79 78 79 79 79 78 77 77 76 74 73 71 70 69 68
62 63 63 64 65 66 66 68 68 69 70 71 72 73 74 75 77 78 79 80 82 83 84 85 86 87 88 89 89 89 89 88 89 89 90 92 93 94 95 95 95 94 94 94 93 92 92 91 90 90 89 88 87 86 86 86 85 84 83 83 81 80 78 77 78 78 79 79 78 77 76 76 77 77 77 75 74 74 74 72 70 68 67 66 66
62 63 64 65 66 67 67 68 69 70 71 72 73 74 75 76 77 78 79 80 82 83 84 85 85 86 87 88 88 88 88 88 88 89 90 91 92 93 94 94 94 93 92 92 91 91 90 89 88 88 88 87 86 85 84 84 84 83 82 81 80 78 77 76 76 77 77 77 76 74 74 74 74 74 74 73 71 71 70 68 67 65 64 63 64
63 63 64 65 66 67 68 69 70 71 72 73 74 75 76 77 78 79 80 81 82 82 83 84 85 86 87 88 88 88 88 87 88 88 89 90 91 92 92 92 92 92 91 90 89 88 88 87 87 86 86 85 84 83 83 82 82 81 80 79 78 76 74 74 74 75 75 75 73 71 71 71 71 71 71 69 68 67 66 64 63 63 62 62 62
63 64 65 66 67 68 69 70 71 72 73 74 75 76 77 78 79 80 81 81 82 82 83 84 85 85 86 87 87 87 87 87 88 88 89 89 90 90 91 91 91 90 89 87 86 85 85 84 84 84 84 83 82 81 80 80 79 79 77 76 75 73 72 72 72 73 73 72 70 68 68 68 68 67 67 66 65 63 62 61 61 60 59 59 59
63 64 65 66 67 69 70 71 72 73 74 75 76 77 78 79 80 80 81 81 81 82 83 84 84 85 86 87 87 87 87 87 87 87 87 88 88 88 89 89 88 88 86 85 83 82 82 81 81 81 81 80 80 79 78 77 77 76 75 74 72 71 70 70 70 71 70 69 67 65 65 65 64 64 63 63 61 60 59 59 59 58 56 56 56
64 65 66 67 68 70 71 72 73 73 74 75 76 77 78 79 79 80 80 81 82 82 83 83 84 85 86 87 87 87 87 86 86 86 86 86 86 86 86 86 85 85 84 82 81 80 79 79 78 77 77 77 76 76 75 75 74 73 73 72 70 69 68 68 68 68 67 66 64 63 62 62 61 60 60 59 58 57 56 55 55 55 54 53 52
65 66 67 68 69 70 71 72 73 74 75 76 77 78 78 79 80 80 81 82 82 83 83 83 83 84 85 86 86 87 87 86 86 85 85 84 84 84 84 83 83 82 82 80 79 78 77 77 75 74 73 73 73 72 72 72 71 71 70 70 68 67 66 65 66 65 64 63 62 61 60 59 58 57 55 55 55 54 53 52 52 52 51 50 50
66 67 68 69 70 71 72 73 73 74 75 76 77 78 78 79 80 81 81 82 82 82 83 82 83 83 84 85 85 86 86 86 85 84 84 83 82 82 81 81 81 81 80 79 78 77 76 75 74 73 71 71 70 70 70 70 69 69 68 67 66 65 63 63 63 63 62 60 59 58 57 56 55 54 52 52 52 51 50 49 49 49 48 48 48
67 68 69 69 70 71 72 73 74 75 75 76 77 78 79 80 81 81 82 82 82 82 82 82 82 83 83 84 84 85 85 84 83 82 81 80 80 79 79 78 78 79 78 77 76 75 75 75 73 71 70 69 68 69 69 68 67 67 66 65 64 63 62 61 60 60 59 58 56 55 54 53 52 51 50 50 49 48 47 47 47 47 46 45 46
67 68 69 69 70 71 72 73 74 75 76 77 78 79 80 81 81 81 81 81 82 82 82 81 82 82 82 82 83 83 82 82 81 80 79 78 77 77 76 76 76 75 75 74 73 73 73 73 71 70 68 67 67 67 66 66 65 64 63 63 62 61 59 59 58 57 56 55 53 51 51 50 50 49 48 47 45 44 44 45 45 44 44 43 43
68 69 70 70 71 72 73 74 75 76 77 78 79 80 80 80 80 80 81 81 81 81 81 81 81 81 81 81 81 80 80 79 79 78 77 77 76 75 75 74 73 72 71 70 70 69 70 70 69 68 66 65 65 64 64 63 62 61 61 61 60 58 57 57 56 54 53 52 50 49 49 48 48 47 45 43 43 42 42 43 42 41 41 40 40
69 70 70 71 72 73 74 74 75 76 77 78 79 79 79 79 79 80 80 81 81 81 81 81 81 80 79 78 77 77 77 77 76 76 76 75 74 74 73 72 71 70 69 68 67 66 67 67 67 66 65 64 62 62 61 59 58 59 59 59 58 56 54 54 53 52 50 49 48 47 47 46 45 44 43 41 41 40 40 39 39 38 37 37 37
69 70 71 72 73 73 74 75 76 77 77 78 78 78 79 79 79 80 80 80 81 81 80 80 79 78 77 75 74 74 74 74 74 74 74 73 73 72 71 70 70 69 68 66 65 64 65 65 65 64 64 62 60 59 58 57 56 57 58 57 56 53 51 50 50 49 48 47 46 45 44 43 42 41 40 39 39 38 37 36 35 35 34 33 33
70 70 71 72 73 74 75 76 76 76 77 77 77 78 78 79 79 79 80 80 80 79 78 78 77 76 74 73 72 72 72 72 72 71 71 71 70 69 69 68 68 67 66 64 63 62 63 62 62 62 61 60 58 57 55 55 55 55 55 55 53 51 49 47 47 46 45 44 43 42 41 39 38 38 38 37 36 35 34 33 33 32 31 30 30
70 71 72 73 74 75 75 76 76 76 76 77 77 77 78 78 79 79 79 78 78 77 76 75 74 74 73 72 71 71 70 70 69 69 68 68 67 67 66 66 65 65 64 62 61 60 60 60 59 58 58 57 56 55 54 53 52 53 53 52 50 48 46 45 44 43 42 41 41 39 37 36 35 35 35 34 33 32 31 30 30 29 28 27 26
71 72 72 73 74 74 75 75 75 75 76 77 77 77 77 78 78 77 77 76 75 74 73 72 72 72 71 71 70 69 69 68 67 67 66 65 65 65 64 63 63 63 63 61 59 57 57 57 56 56 55 55 54 53 52 51 50 50 50 48 47 45 44 43 42 40 39 38 37 35 33 33 32 32 31 31 30 29 28 27 27 26 25 24 23
72 72 72 73 73 74 74 75 75 75 76 76 76 76 76 76 75 75 74 73 72 71 71 71 70 70 69 69 68 67 67 66 65 64 64 63 63 62 61 61 61 62 61 59 56 54 54 54 54 54 53 52 51 51 50 48 48 47 46 45 43 42 41 40 39 37 36 34 33 31 31 30 30 29 28 28 27 26 25 24 24 24 22 21 21
72 72 72 73 73 74 74 75 75 75 75 75 75 74 73 73 72 71 71 71 70 69 69 69 68 68 67 66 66 65 65 64 63 62 62 61 61 60 59 60 61 61 59 56 53 51 51 52 53 52 50 49 48 47 46 46 45 44 43 41 40 39 38 37 35 34 32 30 29 28 28 28 27 26 26 25 24 23 23 22 21 20 20 19 18
71 72 72 73 73 73 74 74 74 74 74 73 72 71 70 70 69 69 69 68 68 68 67 67 66 65 65 64 64 63 63 62 61 60 60 59 59 58 58 59 58 57 56 53 50 49 50 51 50 49 47 46 45 44 43 43 42 41 40 38 37 36 35 33 31 30 28 26 25 25 25 25 25 24 23 22 21 20 20 19 18 17 17 16 15
Wind_Direction
251 251 252 252 253 253 253 253 254 254 255 255 256 257 257 258 258 259 260 260 261 262 262 263 264 264 265 266 267 267 268 269 270 271 271 272 273 273 274 275 275 276 277 277 278 279 279 280 280 281 281 282 282 282 283 283 284 284 285 285 285 286 286 286 286 286 286 286 287 287 287 287 287 286 287 287 287 286 286 286 286 286 286 285 285
251 251 252 252 253 253 254 254 255 255 255 256 256 257 257 258 258 259 259 260 260 261 262 263 263 264 265 266 267 267 268 269 269 270 271 271 272 273 273 274 275 275 276 277 278 278 279 279 280 280 281 281 282 282 283 283 284 284 284 285 285 285 285 285 286 286 286 286 286 286 286 286 286 286 286 286 286 286 286 286 286 286 285 285 285
251 251 251 252 253 253 254 254 255 255 256 256 257 257 258 258 259 259 260 260 261 261 262 263 263 264 265 266 266 267 268 269 269 270 270 271 272 273 273 274 275 275 276 277 277 278 278 279 279 280 280 281 281 282 282 283 283 283 284 284 284 285 285 285 285 285 285 286 286 286 286 286 286 286 286 286 286 286 286 286 286 286 286 285 285
251 251 251 252 252 253 253 254 254 255 256 256 256 257 257 258 259 259 260 261 261 262 262 263 264 264 265 266 267 267 268 269 269 270 271 271 272 273 273 274 274 275 276 276 277 277 278 278 279 279 280 280 281 281 282 282 282 283 283 284 284 284 284 284 285 285 285 286 286 286 286 286 286 286 286 286 286 286 286 286 286 286 286 285 285
253 253 253 253 253 253 254 254 255 255 256 256 257 257 258 258 259 259 260 261 261 262 263 263 264 265 265 266 267 267 268 269 269 270 271 271 272 272 273 273 274 275 275 276 276 277 277 278 278 279 279 280 280 281 281 282 282 283 283 283 284 284 284 285 285 285 285 286 286 286 286 286 286 287 287 286 286 286 286 286 286 285 285 285 285
254 254 254 254 254 255 255 256 256 257 257 258 258 259 259 259 260 260 261 261 262 262 263 264 264 265 266 266 267 267 268 269 269 270 270 271 271 272 272 273 273 274 275 275 276 276 277 277 278 278 279 279 280 280 281 281 282 282 283 283 283 284 284 284 285 285 285 285 285 286 286 286 286 286 286 286 286 286 286 286 286 286 285 285 285
255 255 255 255 255 256 256 257 257 258 258 259 259 260 260 260 261 261 262 262 263 263 264 265 265 266 266 267 267 268 268 269 269 270 270 271 271 272 272 272 273 273 274 275 275 276 276 277 278 278 279 279 280 280 281 281 281 282 282 283 283 283 283 284 284 284 285 285 285 285 285 286 286 286 286 286 286 286 285 285 285 286 286 285 285
255 256 256 256 256 257 257 258 258 258 259 259 260 260 261 261 261 262 262 263 264 264 265 266 266 266 267 267 267 268 268 269 269 270 270 270 271 271 272 272 273 273 274 275 275 276 276 277 277 278 278 279 279 280 280 281 281 281 282 282 283 283 283 284 284 285 285 285 285 285 285 286 286 286 286 286 286 286 286 285 285 285 285 285 285
256 256 257 257 257 257 258 258 258 259 259 260 261 261 262 263 263 264 264 265 265 266 266 266 267 267 268 268 269 269 269 270 270 270 271 271 271 272 272 273 273 274 274 275 275 276 276 277 277 278 278 279 280 280 281 281 282 282 282 283 283 283 284 284 285 285 285 285 286 286 286 286 286 286 286 286 286 286 286 286 285 285 285 285 284
256 256 256 257 258 258 258 259 259 260 260 261 262 263 264 264 265 266 266 267 267 268 268 269 269 270 270 271 271 271 271 272 272 272 272 273 273 273 274 274 274 275 275 276 276 277 277 278 279 279 280 280 281 281 282 282 282 283 283 283 284 284 285 285 285 285 286 286 286 286 286 286 286 286 286 286 286 286 286 286 285 285 285 285 285
256 256 256 257 258 258 259 260 260 261 262 262 263 263 264 265 265 266 267 267 268 269 269 270 271 271 272 272 272 273 273 273 274 274 274 274 275 275 275 276 276 277 277 277 278 278 279 279 280 280 281 281 282 282 282 283 283 283 284 284 284 285 285 285 286 286 286 286 286 286 286 286 287 287 287 287 286 286 286 286 286 286 285 285 285
256 256 257 257 258 259 260 260 261 262 262 263 263 263 264 264 265 266 266 267 268 269 269 270 271 271 272 272 273 273 274 274 274 275 275 275 276 276 276 277 277 277 278 278 279 279 280 280 281 281 281 282 282 283 283 283 284 284 284 284 285 285 285 285 286 286 286 286 287 287 287 287 287 287 287 287 287 287 287 286 286 286 286 286 285
256 257 257 258 258 259 260 260 261 262 263 263 264 264 264 265 265 266 266 267 268 269 269 270 270 271 272 272 273 273 274 274 275 275 275 276 276 276 277 277 278 278 278 279 279 280 280 281 281 282 282 282 283 283 284 284 284 285 285 285 285 286 286 286 286 286 287 287 287 287 287 287 287 287 287 287 287 287 287 287 287 287 287 286 286
256 257 258 259 259 260 260 261 262 262 263 263 264 265 265 266 266 267 267 268 268 269 269 270 270 271 271 272 272 273 274 274 275 275 276 276 276 277 277 278 278 279 279 279 280 280 281 281 282 282 283 283 284 284 285 285 285 285 286 286 286 286 286 286 287 287 287 287 287 287 287 287 287 287 287 288 288 288 287 287 288 288 288 287 287
255 256 257 258 259 260 261 262 262 263 263 264 264 265 265 266 267 267 268 268 269 269 270 270 271 271 272 272 273 273 274 275 275 276 277 277 277 278 278 278 279 279 280 280 280 281 281 282 282 283 284 284 285 285 286 286 286 286 286 286 286 286 287 287 287 287 288 287 287 287 287 287 287 287 287 287 288 288 288 288 288 288 288 288 288
256 257 257 258 258 259 260 261 262 262 263 264 264 265 265 266 266 267 267 268 269 269 270 271 271 272 272 273 273 274 274 275 276 276 277 277 278 278 279 279 280 280 281 281 282 282 283 283 284 284 285 285 285 286 286 286 286 286 287 287 287 287 287 288 288 288 288 287 287 287 287 287 287 287 288 288 288 288 288 288 288 288 288 288 288
258 258 259 259 259 260 260 261 262 263 264 264 265 265 266 267 267 268 268 269 269 270 271 271 272 272 273 273 274 274 275 275 276 276 277 278 279 279 280 280 281 281 282 282 283 283 284 284 284 285 285 285 285 286 286 286 286 287 287 288 288 288 288 288 288 288 288 288 288 288 288 288 288 288 288 288 289 289 289 289 289 289 288 288 288
259 259 260 260 261 261 262 263 263 264 265 265 266 267 267 268 268 269 269 270 270 271 271 272 272 273 274 274 275 275 276 276 277 277 278 278 279 279 280 280 281 282 282 283 283 284 284 284 284 285 285 285 285 285 286 286 286 287 288 288 288 288 288 288 288 288 288 288 288 288 289 289 289 289 289 289 289 289 289 289 289 289 289 288 288
258 259 259 260 261 262 263 264 264 265 265 266 267 267 268 268 269 269 270 270 271 272 272 273 273 274 274 275 275 276 276 277 277 277 278 278 278 279 279 280 281 281 282 282 283 283 284 284 284 284 285 285 285 285 286 286 287 287 288 288 288 289 289 289 289 289 289 289 289 289 289 289 289 289 289 289 289 289 289 289 289 288 288 288 288
258 258 259 259 260 261 262 263 264 265 265 266 267 267 268 269 269 270 270 271 271 272 272 273 273 274 274 274 275 275 276 276 276 277 277 278 278 279 279 280 280 281 282 282 283 283 284 284 284 285 285 285 285 286 286 286 287 288 288 289 289 289 290 290 290 290 290 290 290 290 290 290 289 289 289 289 289 289 289 288 288 288 288 288 287
259 259 260 260 260 261 261 262 262 263 264 265 265 266 267 267 268 269 269 270 270 271 271 272 272 273 273 274 274 275 275 275 276 276 277 278 278 279 280 280 280 281 282 282 283 283 284 284 285 285 286 286 286 287 287 288 288 289 289 289 290 290 290 290 291 290 290 290 290 290 291 291 290 290 290 290 289 289 289 289 288 288 288 287 287
260 261 261 261 261 262 262 262 262 263 263 264 264 265 265 266 267 267 268 269 269 270 271 271 272 272 273 273 274 274 275 276 276 277 278 279 280 280 281 281 282 282 282 283 283 284 284 285 285 286 286 287 288 288 289 289 289 289 289 290 290 290 290 291 291 291 291 291 291 291 291 291 291 291 291 291 291 290 290 290 289 289 288 288 288
263 263 263 263 263 263 264 264 264 264 264 265 265 266 266 267 267 268 269 269 270 271 271 272 272 273 273 274 275 275 276 277 278 279 280 280 281 282 282 283 283 283 283 284 284 284 285 286 286 287 287 288 288 289 289 289 290 290 290 290 290 290 290 290 291 291 291 291 291 292 292 292 292 292 292 292 292 291 291 290 290 290 289 289 289
264 265 265 265 265 266 266 266 266 266 267 267 267 267 268 268 269 269 270 271 271 272 273 273 274 275 275 276 277 277 278 279 280 280 281 282 282 283 283 284 284 285 285 285 285 286 286 287 287 287 288 288 288 289 289 289 290 290 290 290 290 290 290 291 291 291 291 291 291 291 292 292 292 292 292 292 292 292 292 292 291 291 290 290 289
266 266 266 266 266 266 266 267 267 267 268 268 269 269 269 270 270 271 271 272 273 273 274 275 275 276 277 278 278 279 280 280 281 282 282 283 283 284 284 285 285 286 286 287 287 287 287 287 288 288 288 288 289 289 289 290 290 290 290 291 291 291 291 291 291 291 291 291 291 292 292 292 292 292 292 292 293 293 293 292 292 291 291 290 290
267 267 267 267 267 267 267 267 268 268 268 269 269 270 270 271 271 272 272 273 274 274 275 276 276 277 278 279 279 280 281 281 282 283 284 284 285 285 285 285 286 286 287 287 287 287 288 288 288 288 289 289 289 290 290 290 290 291 291 291 291 291 292 292 292 292 292 292 292 292 292 292 292 292 292 292 292 292 292 291 291 291 290 290 290
268 268 268 268 268 268 268 268 268 269 269 269 270 270 271 271 272 273 273 274 275 275 276 277 277 278 279 280 281 281 282 283 283 284 284 285 285 285 286 286 286 287 287 287 288 288 288 289 289 289 290 290 291 291 291 291 291 291 291 292 292 292 292 292 292 292 292 292 292 292 292 292 292 292 292 292 291 291 291 291 291 291 290 290 290
268 269 269 269 269 269 269 270 270 270 270 270 271 271 272 273 273 274 275 275 276 277 277 278 279 280 280 281 282 282 283 284 284 285 285 285 286 286 286 287 287 287 288 288 288 289 289 290 290 290 291 291 292 292 292 292 292 292 292 292 292 292 292 292 292 293 293 293 293 293 293 293 292 292 292 292 291 291 291 291 291 291 291 291 292
269 269 269 269 270 270 270 270 271 271 271 272 272 273 274 274 275 276 276 277 278 278 279 279 280 281 281 282 282 283 284 285 285 286 286 286 287 287 287 287 288 288 289 289 289 290 290 291 291 292 292 292 293 293 293 293 293 293 293 293 293 293 293 293 294 294 294 294 294 294 294 294 294 293 293 293 293 292 292 292 292 292 293 293 293
271 271 271 271 272 272 272 272 272 273 273 273 274 275 275 276 276 277 277 278 278 279 280 280 281 281 282 283 284 284 285 286 286 287 287 287 287 288 288 288 289 290 290 290 291 291 291 292 292 293 293 293 293 293 293 293 293 294 294 294 294 294 294 294 295 295 295 294 294 295 295 295 295 294 294 294 294 294 293 293 293 294 294 294 294
273 273 273 273 273 273 273 273 274 274 275 275 275 276 276 276 277 277 278 278 279 280 280 281 282 283 284 284 285 285 286 286 287 288 288 288 289 289 289 290 290 291 291 291 291 292 292 292 293 293 293 293 293 293 293 294 294 294 294 294 294 295 295 295 295 295 295 295 295 295 295 295 295 295 295 295 295 295 295 294 295 295 295 296 296
272 273 273 273 273 273 273 274 274 274 275 275 276 276 276 277 278 278 279 279 280 281 282 283 283 284 285 286 286 286 287 287 288 288 289 289 290 290 290 291 291 291 292 292 292 293 293 293 293 294 294 294 294 294 294 294 295 295 295 295 295 295 296 296 296 295 295 295 295 295 295 295 295 295 295 296 296 295 295 295 296 296 296 296 296
271 271 272 272 272 273 273 274 274 275 275 276 276 277 278 278 279 279 280 281 281 282 283 284 285 285 286 286 287 287 288 288 289 289 290 290 291 291 291 292 292 292 292 293 293 294 294 294 295 295 295 295 295 295 295 296 296 296 296 296 296 297 297 297 296 296 295 295 295 295 296 296 295 295 295 295 295 295 295 296 297 297 297 296 296
271 271 272 272 273 273 274 275 276 276 277 278 278 279 279 280 280 281 281 282 283 284 284 285 286 286 287 287 287 288 289 289 290 290 291 291 291 291 292 292 292 293 293 294 294 295 295 295 296 296 296 296 296 296 296 296 297 297 297 297 297 298 298 298 297 296 295 295 295 296 296 295 295 294 294 294 295 295 296 297 297 297 297 296 295
272 272 273 274 274 275 276 276 277 278 278 279 279 280 280 281 281 282 283 283 284 285 286 286 287 287 288 288 289 289 290 290 291 291 291 291 291 292 292 293 293 294 294 295 295 295 296 296 296 296 296 296 296 297 297 297 297 297 297 297 297 297 298 297 296 295 294 295 295 296 295 294 294 294 294 295 295 296 297 297 297 297 296 296 295
273 273 274 274 275 276 277 277 278 279 280 280 281 281 282 282 283 284 284 285 286 286 287 288 288 289 289 289 290 290 291 291 291 292 292 292 292 292 293 293 294 294 294 294 295 295 295 295 296 296 296 296 297 297 297 297 297 297 297 297 297 297 297 297 296 294 294 295 295 295 294 294 294 294 295 296 296 297 297 297 296 296 295 295 295
274 274 275 276 276 277 278 279 279 280 281 281 282 282 283 283 284 285 286 287 287 288 288 289 289 290 290 290 290 291 291 291 291 291 291 292 292 292 293 293 293 293 294 294 294 295 295 295 295 296 296 296 297 297 297 297 297 297 297 297 297 297 297 296 295 294 294 295 295 295 295 295 295 296 296 297 297 297 297 296 295 295 295 295 295
275 275 276 277 277 278 279 280 280 281 281 282 283 283 284 285 286 286 287 288 288 289 289 290 290 291 291 291 291 291 291 291 291 292 292 292 293 293 293 293 293 294 294 294 295 295 295 295 295 295 296 296 296 297 297 297 297 297 297 297 297 297 297 296 295 295 295 296 296 296 296 296 296 297 297 297 297 296 296 295 295 295 295 294 294
276 276 277 278 278 279 280 280 281 281 282 283 284 284 286 286 287 288 288 289 289 290 290 290 291 291 291 291 292 292 292 293 293 293 293 293 294 294 294 294 294 295 295 295 296 296 296 295 295 296 296 296 296 297 296 296 297 297 297 297 297 297 297 296 296 296 296 297 297 297 297 297 297 297 297 297 296 295 295 295 295 295 295 294 293
277 277 278 278 279 280 280 281 282 283 283 284 285 286 287 288 288 289 289 289 290 290 290 291 291 291 291 292 292 292 293 293 293 294 294 294 294 294 295 295 296 296 296 297 297 297 297 297 297 297 297 298 298 297 297 297 297 297 297 297 297 297 297 296 297 297 297 298 298 298 298 298 298 298 297 296 296 296 297 296 295 294 294 294 294
277 278 279 279 280 281 282 283 283 284 285 286 287 288 288 288 289 289 289 290 290 290 291 291 291 292 292 292 292 293 293 293 294 294 294 294 294 295 295 296 296 296 297 297 298 298 298 298 298 299 299 299 298 298 298 298 298 298 298 298 297 297 297 298 298 298 298 298 299 299 299 299 298 297 297 297 297 298 297 296 295 295 295 295 295
278 279 280 281 282 282 283 284 285 286 287 287 288 288 288 288 289 289 290 290 290 291 291 291 292 292 292 292 293 293 294 294 294 294 294 295 295 295 295 296 296 296 297 297 298 298 298 298 298 299 298 298 298 298 298 298 298 298 298 298 297 298 298 299 299 299 299 299 300 300 299 298 297 297 298 298 298 298 296 295 295 296 297 297 298
280 281 282 282 283 284 284 285 286 287 287 287 288 288 288 289 289 290 290 291 291 291 292 292 292 292 293 293 294 294 294 295 295 295 295 296 296 296 296 296 296 296 297 297 297 297 297 297 298 298 298 298 298 298 298 298 298 298 298 297 298 299 299 300 300 300 300 300 300 300 299 298 298 298 299 299 298 297 296 296 297 298 298 299 299
281 282 282 283 284 285 286 286 287 287 287 287 288 288 289 290 290 291 291 291 292 292 292 293 293 293 294 294 295 295 295 295 295 296 296 296 296 296 296 297 297 297 297 297 297 297 297 297 298 298 298 298 298 297 297 298 299 299 298 298 299 300 301 301 302 301 301 300 300 299 298 298 299 299 299 298 297 297 297 297 298 298 299 300 300
282 283 284 285 285 286 286 286 287 287 287 288 288 289 290 290 291 291 292 292 292 293 293 293 294 294 294 295 295 295 295 295 296 296 296 296 296 297 297 297 297 297 297 298 298 298 297 298 298 298 298 298 298 297 298 299 299 299 298 299 300 302 303 303 303 301 301 300 299 299 299 300 300 299 298 298 298 298 298 298 298 299 300 300 300
283 284 285 285 285 286 286 286 286 287 288 289 289 290 291 291 292 292 292 293 293 293 294 294 294 295 295 295 295 295 295 295 295 296 296 296 296 297 297 297 297 297 297 298 298 298 298 299 299 298 298 298 298 299 300 300 300 299 300 301 302 304 305 304 302 301 301 300 299 299 300 300 299 298 298 298 298 298 299 299 300 300 301 301 300
284 284 285 285 285 286 286 287 288 288 289 290 290 291 292 292 292 293 293 293 293 294 294 294 295 295 295 296 296 296 296 295 296 296 296 296 296 297 297 297 297 297 297 298 299 299 299 299 299 298 298 299 300 300 301 301 301 301 302 303 304 305 305 303 302 301 301 300 300 301 301 300 298 298 298 298 299 300 300 301 300 300 301 302 302
284 284 285 285 286 287 287 288 289 290 290 291 291 292 292 292 292 293 293 293 293 294 294 295 295 295 296 296 296 296 296 296 296 296 296 296 296 296 297 297 297 297 297 299 300 300 300 299 299 298 299 300 301 301 302 303 303 303 303 304 305 305 304 302 302 302 302 302 302 303 302 300 299 298 298 299 300 301 301 301 301 301 303 304 305
285 285 286 286 287 288 288 289 290 290 291 291 291 292 292 292 292 292 293 293 294 294 295 295 295 295 295 295 296 296 296 296 296 296 296 296 296 297 298 298 298 297 298 300 301 301 300 299 299 299 300 301 302 303 303 304 303 303 303 305 305 304 303 302 303 303 304 304 304 303 301 299 299 298 299 300 301 301 302 302 303 304 305 308 310
285 286 287 287 288 289 289 290 290 291 291 291 291 291 291 292 292 293 293 294 294 295 295 295 295 295 295 295 295 296 296 296 296 296 296 296 297 298 298 298 298 298 299 301 301 301 300 299 299 300 302 302 303 304 304 304 303 303 304 305 305 304 303 304 305 305 305 305 304 302 300 299 298 299 300 301 302 303 303 303 305 307 310 313 317
286 287 287 288 289 289 290 290 290 291 291 291 291 291 292 292 293 293 294 294 294 295 295 295 295 295 295 296 296 296 296 296 296 296 296 297 298 298 298 298 298 299 299 300 301 301 300 300 300 302 303 303 304 304 304 303 303 303 304 305 304 304 305 306 306 306 305 305 303 300 298 298 300 301 302 304 304 305 305 306 308 312 315 319 323
Height
10337 10339 10340 10341 10342 10343 10343 10343 10344 10344 10344 10344 10344 10344 10344 10344 10344 10343 10342 10341 10340 10338 10337 10336 10334 10333 10333 10332 10331 10331 10329 10328 10327 10325 10323 10321 10319 10316 10313 10310 10306 10303 10300 10297 10295 10293 10290 10287 10284 10281 10277 10274 10271 10268 10265 10262 10259 10256 10253 10251 10250 10247 10243 10239 10236 10231 10226 10226 10226 10222 10219 10216 10213 10211 10208 10202 10196 10192 10188 10185 10182 10178 10175 10171 10166
10323 10324 10325 10326 10327 10327 10327 10328 10329 10330 10330 10330 10330 10330 10329 10329 10328 10328 10327 10326 10325 10324 10323 10322 10320 10320 10319 10318 10317 10316 10315 10314 10312 10311 10309 10306 10304 10301 10298 10295 10291 10288 10285 10282 10280 10277 10274 10271 10268 10264 10260 10257 10254 10251 10248 10245 10242 10239 10236 10234 10232 10229 10226 10222 10218 10214 10209 10206 10206 10204 10200 10198 10195 10193 10191 10186 10180 10175 10170 10166 10162 10159 10156 10153 10149
10308 10309 10309 10310 10311 10311 10311 10312 10313 10313 10314 10314 10314 10314 10314 10313 10313 10312 10312 10311 10310 10309 10309 10308 10307 10306 10305 10304 10302 10301 10300 10299 10297 10295 10293 10290 10288 10285 10283 10280 10277 10273 10270 10267 10265 10262 10259 10255 10251 10248 10244 10241 10237 10234 10232 10228 10225 10222 10219 10217 10215 10211 10208 10204 10201 10198 10193 10188 10187 10185 10181 10178 10176 10175 10173 10168 10163 10158 10153 10148 10143 10138 10136 10132 10129
10293 10294 10294 10295 10295 10295 10295 10295 10296 10296 10296 10297 10298 10298 10298 10298 10297 10297 10296 10295 10295 10294 10294 10293 10292 10291 10290 10288 10287 10286 10285 10283 10281 10279 10277 10275 10273 10271 10268 10265 10261 10258 10255 10252 10249 10246 10243 10239 10236 10232 10228 10225 10222 10218 10215 10212 10208 10206 10203 10200 10197 10193 10189 10186 10182 10180 10177 10172 10168 10165 10162 10159 10156 10154 10153 10149 10143 10138 10135 10131 10125 10120 10116 10112 10109
10279 10280 10281 10281 10281 10280 10280 10280 10281 10281 10281 10281 10282 10283 10283 10283 10282 10282 10281 10281 10280 10280 10279 10278 10277 10276 10275 10274 10272 10271 10269 10267 10265 10263 10262 10260 10258 10256 10253 10249 10246 10242 10239 10237 10233 10230 10227 10224 10220 10217 10212 10208 10206 10202 10199 10196 10192 10189 10186 10182 10178 10175 10171 10167 10164 10161 10159 10156 10151 10146 10142 10140 10137 10134 10133 10130 10124 10118 10114 10110 10105 10101 10099 10094 10088
10267 10267 10267 10267 10268 10268 10267 10267 10267 10267 10268 10267 10267 10268 10268 10268 10268 10267 10266 10266 10265 10265 10264 10263 10263 10262 10261 10259 10257 10256 10254 10252 10250 10249 10247 10245 10244 10241 10238 10234 10231 10227 10224 10221 10218 10215 10211 10208 10205 10201 10197 10193 10189 10186 10183 10180 10176 10172 10169 10165 10161 10157 10153 10149 10146 10143 10140 10137 10134 10129 10124 10121 10118 10114 10112 10110 10106 10101 10096 10091 10084 10079 10079 10076 10069
10253 10253 10254 10254 10254 10255 10255 10255 10254 10253 10253 10253 10253 10253 10252 10252 10252 10251 10251 10251 10250 10251 10250 10249 10249 10247 10246 10244 10243 10241 10239 10237 10235 10234 10232 10231 10229 10226 10223 10219 10216 10212 10209 10206 10203 10200 10196 10193 10189 10185 10182 10177 10173 10170 10166 10164 10161 10156 10152 10148 10144 10140 10136 10132 10128 10125 10122 10118 10115 10112 10107 10102 10100 10096 10092 10088 10085 10081 10078 10075 10068 10061 10056 10053 10047
10240 10241 10241 10241 10241 10242 10241 10241 10240 10239 10239 10238 10238 10238 10237 10237 10237 10237 10237 10237 10237 10237 10236 10235 10234 10232 10231 10230 10228 10226 10225 10223 10221 10219 10217 10216 10215 10212 10208 10204 10201 10198 10195 10191 10188 10185 10181 10177 10174 10170 10166 10162 10158 10154 10150 10147 10145 10141 10136 10131 10127 10122 10118 10114 10111 10107 10103 10099 10095 10092 10088 10083 10080 10077 10072 10068 10065 10060 10056 10053 10051 10047 10041 10033 10024
10228 10228 10228 10228 10228 10228 10228 10227 10226 10226 10225 10225 10225 10224 10224 10224 10223 10223 10223 10223 10223 10222 10222 10220 10219 10217 10216 10215 10214 10212 10210 10208 10205 10203 10202 10202 10200 10197 10193 10189 10186 10183 10180 10176 10173 10169 10165 10162 10158 10155 10151 10147 10142 10138 10134 10130 10127 10124 10120 10115 10110 10105 10100 10096 10093 10089 10085 10079 10075 10073 10069 10064 10060 10057 10053 10049 10046 10042 10036 10031 10030 10028 10024 10016 10007
10215 10214 10214 10213 10213 10213 10214 10213 10214 10213 10213 10213 10213 10213 10212 10211 10211 10210 10210 10209 10208 10207 10206 10205 10204 10202 10201 10200 10198 10196 10194 10191 10189 10187 10186 10186 10185 10181 10177 10174 10170 10167 10164 10161 10157 10154 10149 10146 10142 10138 10135 10131 10126 10122 10117 10113 10109 10105 10102 10098 10094 10088 10083 10079 10075 10072 10067 10061 10057 10054 10051 10046 10041 10038 10034 10031 10027 10022 10017 10012 10010 10008 10003 9997 9989
10200 10200 10200 10200 10200 10200 10201 10201 10201 10201 10201 10202 10201 10201 10200 10199 10198 10197 10197 10196 10195 10194 10193 10192 10191 10189 10187 10185 10183 10181 10178 10176 10173 10171 10170 10170 10169 10166 10162 10158 10154 10151 10148 10145 10142 10138 10134 10130 10126 10123 10119 10115 10110 10105 10100 10096 10092 10088 10084 10081 10077 10071 10066 10062 10058 10054 10049 10043 10039 10036 10033 10029 10023 10018 10015 10012 10008 10003 9997 9992 9991 9989 9983 9977 9972
10186 10187 10187 10188 10189 10189 10190 10190 10189 10189 10189 10189 10188 10187 10186 10186 10186 10185 10184 10183 10182 10181 10181 10180 10178 10176 10173 10171 10169 10167 10164 10161 10159 10156 10154 10154 10154 10152 10147 10143 10139 10136 10133 10130 10127 10123 10118 10114 10110 10107 10103 10099 10094 10089 10084 10078 10074 10070 10067 10064 10060 10054 10049 10045 10042 10038 10032 10026 10021 10017 10014 10011 10006 10001 9996 9993 9990 9985 9978 9974 9971 9969 9964 9958 9954
10173 10174 10175 10176 10177 10178 10178 10178 10178 10177 10177 10176 10175 10174 10174 10174 10173 10173 10172 10171 10170 10169 10168 10167 10165 10163 10161 10158 10156 10153 10150 10147 10144 10142 10140 10139 10139 10137 10133 10128 10125 10122 10119 10115 10112 10108 10104 10099 10095 10090 10087 10083 10078 10073 10068 10061 10056 10052 10050 10048 10043 10037 10031 10028 10026 10022 10017 10011 10006 10000 9995 9992 9987 9983 9978 9975 9972 9967 9961 9956 9953 9949 9944 9938 9934
10163 10164 10164 10164 10165 10165 10166 10166 10166 10165 10164 10163 10162 10162 10161 10161 10161 10160 10159 10158 10157 10156 10155 10154 10152 10150 10148 10146 10143 10141 10138 10135 10131 10127 10125 10124 10124 10122 10118 10114 10110 10107 10104 10101 10097 10094 10090 10085 10080 10076 10071 10067 10063 10058 10052 10044 10038 10034 10032 10031 10026 10019 10014 10011 10008 10004 10000 9996 9991 9985 9979 9974 9969 9965 9960 9957 9954 9950 9944 9940 9936 9931 9924 9918 9913
10153 10154 10154 10154 10154 10154 10154 10154 10153 10153 10152 10151 10150 10150 10150 10150 10149 10147 10146 10145 10145 10143 10142 10141 10139 10137 10136 10134 10131 10129 10126 10123 10119 10113 10109 10109 10109 10107 10103 10099 10095 10092 10089 10085 10082 10078 10074 10070 10066 10061 10056 10052 10047 10042 10036 10027 10019 10016 10015 10013 10007 10001 9997 9994 9990 9986 9982 9978 9974 9969 9964 9958 9953 9949 9945 9941 9938 9933 9927 9923 9919 9915 9909 9902 9896
10141 10142 10143 10143 10144 10143 10143 10142 10141 10141 10140 10139 10139 10139 10138 10138 10137 10136 10135 10133 10132 10131 10129 10128 10126 10124 10123 10120 10118 10116 10113 10110 10107 10102 10096 10093 10094 10093 10089 10084 10080 10077 10073 10069 10065 10062 10058 10054 10051 10046 10041 10036 10032 10027 10021 10012 10003 9999 9998 9994 9988 9984 9981 9978 9973 9969 9965 9960 9957 9952 9947 9942 9936 9932 9928 9925 9922 9918 9911 9905 9901 9897 9893 9888 9881
10129 10130 10131 10131 10131 10131 10131 10131 10130 10130 10129 10128 10128 10127 10126 10126 10125 10124 10123 10121 10120 10118 10116 10115 10113 10110 10109 10107 10104 10102 10100 10096 10094 10091 10085 10080 10079 10078 10075 10071 10066 10061 10057 10053 10050 10046 10042 10038 10034 10031 10026 10021 10017 10012 10006 9997 9988 9984 9982 9976 9969 9965 9964 9960 9955 9951 9947 9943 9939 9935 9931 9926 9920 9915 9911 9908 9906 9903 9897 9891 9885 9880 9877 9873 9868
10119 10119 10119 10118 10119 10119 10119 10120 10119 10118 10118 10117 10116 10115 10114 10113 10112 10111 10110 10108 10106 10105 10103 10101 10099 10097 10095 10093 10090 10088 10086 10083 10081 10078 10073 10068 10066 10065 10062 10058 10053 10047 10043 10039 10035 10030 10026 10021 10018 10014 10010 10006 10002 9998 9992 9982 9974 9971 9968 9961 9952 9947 9945 9941 9937 9932 9929 9925 9922 9918 9914 9910 9904 9898 9894 9891 9889 9886 9882 9877 9871 9866 9861 9857 9853
10108 10108 10107 10107 10108 10108 10108 10108 10107 10106 10106 10105 10104 10103 10102 10101 10100 10098 10097 10095 10094 10092 10090 10088 10086 10084 10081 10079 10077 10074 10072 10069 10067 10064 10059 10055 10052 10051 10049 10046 10042 10036 10030 10026 10021 10016 10011 10006 10002 9998 9994 9990 9986 9984 9979 9969 9960 9957 9955 9947 9939 9932 9928 9924 9919 9914 9910 9906 9904 9901 9897 9894 9889 9884 9879 9875 9872 9869 9865 9861 9857 9852 9848 9842 9838
10096 10097 10097 10097 10097 10097 10097 10097 10096 10095 10094 10093 10092 10091 10090 10089 10087 10086 10084 10083 10081 10079 10078 10075 10073 10071 10069 10066 10064 10061 10059 10056 10053 10050 10046 10041 10038 10037 10036 10034 10031 10025 10019 10013 10009 10003 9997 9991 9986 9982 9978 9973 9969 9967 9964 9957 9949 9943 9940 9934 9926 9918 9912 9907 9903 9898 9892 9888 9884 9882 9879 9876 9872 9869 9865 9861 9858 9854 9850 9846 9842 9839 9834 9829 9825
10085 10086 10087 10086 10086 10086 10086 10086 10085 10085 10084 10083 10081 10080 10079 10077 10076 10074 10072 10070 10068 10067 10065 10063 10061 10059 10056 10054 10051 10048 10046 10043 10040 10037 10033 10028 10024 10021 10020 10020 10017 10012 10007 10001 9995 9990 9985 9978 9972 9967 9962 9957 9952 9949 9945 9941 9935 9930 9925 9920 9913 9905 9898 9892 9886 9881 9877 9872 9868 9864 9861 9858 9854 9851 9848 9845 9842 9838 9834 9830 9827 9824 9820 9815 9812
10074 10075 10075 10075 10075 10075 10075 10075 10074 10074 10073 10071 10070 10069 10067 10066 10064 10062 10061 10059 10057 10055 10053 10051 10049 10047 10044 10041 10038 10035 10032 10029 10026 10023 10019 10015 10010 10006 10003 10003 10001 9997 9993 9988 9982 9977 9972 9965 9959 9954 9948 9943 9938 9933 9928 9924 9919 9914 9910 9905 9899 9893 9886 9879 9872 9866 9861 9856 9852 9848 9845 9841 9837 9833 9830 9827 9825 9822 9818 9814 9811 9809 9804 9800 9799
10064 10064 10064 10065 10064 10064 10064 10063 10063 10062 10061 10060 10059 10058 10056 10055 10053 10051 10050 10048 10045 10043 10041 10038 10036 10033 10031 10028 10025 10022 10019 10016 10013 10009 10006 10002 9998 9993 9988 9985 9983 9980 9977 9974 9969 9964 9958 9952 9945 9939 9934 9929 9924 9919 9914 9908 9903 9898 9894 9890 9885 9880 9873 9866 9860 9854 9848 9843 9838 9834 9831 9827 9822 9817 9813 9810 9808 9805 9801 9797 9795 9792 9788 9784 9784
10054 10054 10054 10054 10053 10053 10052 10052 10051 10050 10049 10048 10047 10046 10044 10043 10041 10039 10037 10035 10033 10030 10027 10025 10022 10019 10017 10014 10011 10008 10005 10002 9999 9996 9992 9989 9985 9980 9975 9970 9966 9963 9960 9957 9953 9948 9944 9939 9932 9926 9920 9915 9910 9906 9901 9895 9889 9884 9879 9875 9870 9865 9860 9853 9847 9842 9836 9831 9826 9821 9818 9814 9809 9804 9799 9795 9792 9789 9784 9780 9778 9777 9772 9768 9767
10043 10044 10043 10043 10042 10042 10041 10040 10039 10038 10037 10036 10035 10033 10032 10030 10029 10027 10025 10022 10020 10017 10015 10012 10009 10006 10003 10001 9998 9995 9992 9989 9986 9983 9979 9975 9970 9966 9962 9957 9953 9949 9945 9941 9937 9932 9928 9924 9918 9912 9906 9901 9896 9892 9887 9882 9877 9871 9866 9861 9856 9851 9846 9840 9834 9829 9823 9818 9814 9809 9805 9801 9797 9792 9788 9783 9779 9776 9770 9764 9761 9761 9758 9753 9751
10032 10033 10032 10032 10031 10031 10030 10029 10028 10027 10026 10024 10023 10022 10020 10018 10017 10015 10013 10010 10008 10006 10003 10000 9997 9994 9991 9988 9985 9982 9979 9975 9972 9969 9965 9961 9956 9952 9948 9944 9940 9936 9932 9927 9922 9917 9913 9909 9904 9898 9892 9886 9881 9877 9872 9868 9863 9859 9853 9848 9842 9838 9832 9826 9820 9815 9810 9805 9801 9797 9793 9789 9784 9780 9776 9772 9768 9764 9758 9751 9746 9745 9744 9740 9737
10022 10022 10021 10021 10020 10019 10018 10017 10017 10015 10014 10013 10012 10010 10009 10007 10005 10003 10001 9999 9997 9994 9991 9988 9986 9983 9979 9976 9973 9970 9966 9962 9959 9956 9952 9947 9943 9938 9934 9930 9926 9923 9919 9914 9908 9903 9898 9894 9889 9884 9878 9872 9867 9861 9856 9852 9848 9845 9840 9835 9830 9825 9819 9813 9807 9801 9797 9792 9788 9783 9780 9776 9772 9768 9763 9760 9757 9754 9748 9741 9735 9731 9729 9727 9724
10012 10011 10011 10010 10009 10008 10007 10006 10005 10004 10003 10002 10000 9999 9998 9996 9994 9992 9990 9987 9985 9982 9980 9977 9974 9971 9967 9964 9961 9957 9953 9949 9946 9943 9939 9934 9929 9925 9920 9916 9913 9909 9905 9901 9895 9889 9884 9879 9875 9870 9865 9859 9852 9847 9842 9837 9833 9830 9826 9822 9818 9813 9807 9801 9795 9789 9784 9779 9774 9770 9766 9762 9759 9755 9751 9747 9744 9741 9736 9730 9725 9720 9717 9714 9712
10001 10001 10000 9999 9998 9998 9997 9996 9995 9993 9992 9991 9990 9988 9987 9985 9983 9981 9979 9976 9973 9971 9968 9965 9962 9959 9955 9951 9948 9945 9941 9936 9932 9929 9925 9920 9915 9911 9907 9903 9899 9896 9892 9887 9881 9875 9871 9865 9860 9856 9851 9845 9838 9832 9828 9823 9819 9816 9812 9808 9804 9799 9794 9789 9782 9776 9771 9766 9762 9757 9753 9749 9744 9741 9737 9733 9730 9728 9724 9718 9713 9709 9706 9703 9700
9991 9990 9989 9988 9988 9987 9986 9985 9984 9983 9982 9980 9979 9977 9976 9974 9972 9970 9968 9965 9962 9959 9956 9953 9950 9947 9942 9939 9935 9932 9928 9924 9919 9916 9912 9907 9902 9898 9893 9889 9886 9882 9878 9873 9867 9862 9857 9851 9846 9842 9838 9832 9825 9819 9815 9810 9806 9802 9799 9795 9792 9787 9782 9776 9770 9764 9758 9753 9749 9745 9741 9736 9731 9727 9724 9720 9717 9714 9711 9707 9702 9698 9696 9692 9689
9981 9980 9979 9978 9978 9976 9975 9975 9973 9972 9971 9970 9968 9967 9965 9963 9961 9959 9957 9954 9951 9948 9945 9941 9938 9934 9930 9926 9922 9918 9915 9912 9908 9903 9898 9893 9888 9883 9879 9876 9873 9868 9864 9859 9853 9848 9844 9838 9832 9829 9825 9819 9813 9808 9802 9797 9793 9789 9785 9782 9780 9777 9772 9766 9759 9753 9747 9741 9737 9734 9730 9725 9719 9714 9711 9708 9704 9701 9698 9696 9693 9689 9685 9682 9678
9972 9971 9970 9969 9968 9967 9966 9965 9964 9963 9961 9960 9958 9957 9955 9953 9951 9948 9945 9943 9940 9937 9933 9929 9925 9922 9918 9914 9909 9905 9902 9900 9896 9891 9886 9880 9874 9869 9864 9861 9858 9854 9850 9845 9839 9834 9830 9824 9818 9814 9810 9806 9801 9796 9791 9785 9780 9776 9772 9769 9766 9764 9760 9755 9748 9742 9736 9730 9726 9724 9720 9715 9709 9704 9700 9697 9694 9689 9686 9684 9683 9680 9676 9673 9669
9963 9962 9960 9959 9958 9957 9956 9955 9954 9952 9951 9949 9948 9946 9944 9942 9940 9937 9934 9932 9928 9925 9921 9918 9914 9910 9906 9901 9896 9893 9890 9888 9884 9879 9874 9868 9862 9856 9851 9847 9843 9839 9835 9831 9826 9821 9816 9810 9805 9800 9795 9791 9787 9783 9778 9773 9768 9764 9760 9756 9753 9750 9747 9743 9737 9730 9724 9719 9716 9713 9710 9705 9699 9694 9690 9688 9685 9680 9676 9674 9673 9671 9667 9663 9659
9954 9952 9951 9950 9949 9947 9946 9945 9944 9942 9940 9939 9937 9935 9933 9931 9928 9925 9923 9920 9917 9914 9910 9906 9902 9898 9893 9888 9883 9880 9878 9875 9871 9867 9862 9856 9850 9844 9839 9834 9830 9826 9822 9818 9813 9808 9803 9798 9793 9787 9782 9778 9774 9770 9765 9760 9756 9752 9748 9744 9741 9738 9735 9731 9725 9719 9713 9708 9706 9704 9700 9694 9690 9685 9680 9678 9676 9672 9668 9666 9663 9660 9658 9654 9649
9944 9943 9942 9940 9939 9938 9936 9935 9933 9932 9930 9928 9926 9924 9922 9919 9917 9914 9911 9908 9905 9902 9898 9894 9890 9886 9881 9875 9870 9867 9865 9862 9858 9854 9849 9843 9837 9832 9826 9821 9817 9813 9809 9805 9801 9796 9791 9786 9781 9775 9771 9767 9763 9759 9754 9749 9745 9741 9737 9733 9730 9727 9724 9720 9714 9708 9702 9698 9697 9694 9690 9684 9680 9676 9672 9669 9667 9664 9660 9658 9655 9651 9648 9644 9640
9935 9934 9933 9931 9930 9928 9927 9925 9923 9921 9920 9917 9915 9913 9910 9908 9905 9902 9899 9896 9893 9890 9886 9881 9877 9873 9868 9862 9858 9855 9852 9849 9845 9841 9836 9830 9825 9820 9814 9809 9804 9800 9796 9794 9791 9786 9781 9776 9770 9764 9759 9755 9751 9747 9743 9739 9734 9730 9727 9723 9720 9717 9713 9709 9703 9697 9692 9690 9688 9685 9680 9675 9671 9667 9664 9661 9658 9655 9652 9649 9645 9642 9640 9636 9632
9926 9925 9923 9922 9920 9918 9917 9915 9913 9911 9909 9907 9904 9902 9899 9896 9893 9890 9888 9885 9881 9878 9874 9870 9865 9860 9855 9849 9845 9843 9840 9837 9833 9829 9824 9819 9814 9809 9803 9798 9793 9788 9784 9782 9780 9776 9771 9766 9762 9756 9750 9745 9740 9736 9732 9728 9724 9720 9716 9713 9710 9707 9702 9697 9692 9686 9682 9680 9679 9675 9670 9666 9663 9659 9656 9653 9650 9647 9644 9640 9636 9633 9631 9629 9624
9916 9915 9914 9912 9910 9909 9907 9905 9903 9901 9898 9896 9893 9891 9888 9885 9882 9879 9876 9873 9869 9866 9862 9858 9854 9849 9843 9837 9832 9828 9826 9823 9820 9816 9811 9807 9802 9797 9792 9787 9782 9777 9773 9770 9768 9764 9760 9755 9752 9747 9742 9737 9732 9726 9722 9718 9714 9710 9705 9702 9699 9696 9692 9687 9681 9676 9673 9671 9668 9665 9662 9658 9655 9652 9648 9644 9641 9639 9636 9632 9628 9625 9623 9621 9617
9907 9906 9904 9902 9901 9899 9897 9895 9892 9890 9888 9885 9882 9879 9876 9873 9870 9867 9864 9860 9857 9853 9850 9847 9843 9837 9832 9827 9821 9815 9811 9809 9806 9801 9797 9794 9789 9784 9779 9774 9769 9765 9761 9758 9755 9752 9747 9743 9740 9737 9733 9728 9723 9717 9712 9708 9704 9700 9696 9692 9688 9686 9682 9677 9671 9667 9665 9662 9659 9656 9653 9649 9646 9644 9641 9637 9633 9630 9628 9625 9621 9617 9615 9612 9610
9897 9896 9894 9893 9891 9889 9887 9884 9882 9879 9877 9874 9871 9868 9865 9862 9858 9855 9852 9848 9845 9841 9838 9835 9831 9826 9820 9816 9810 9805 9800 9796 9793 9789 9785 9781 9777 9772 9768 9763 9758 9753 9749 9746 9743 9739 9734 9730 9728 9725 9721 9717 9713 9707 9701 9698 9694 9690 9686 9682 9679 9675 9672 9668 9663 9659 9656 9654 9651 9648 9645 9641 9638 9635 9633 9629 9625 9623 9620 9617 9614 9611 9608 9605 9602
9887 9886 9884 9883 9881 9879 9876 9874 9871 9868 9866 9863 9860 9857 9853 9850 9846 9843 9840 9836 9832 9829 9826 9822 9819 9814 9809 9804 9799 9794 9789 9785 9781 9777 9774 9770 9766 9762 9758 9753 9748 9743 9738 9735 9732 9727 9722 9718 9715 9712 9709 9706 9702 9697 9691 9687 9684 9680 9676 9673 9669 9665 9662 9659 9655 9651 9648 9646 9643 9640 9637 9633 9630 9627 9624 9622 9619 9616 9613 9609 9606 9604 9602 9599 9595
9877 9876 9874 9872 9870 9868 9865 9863 9860 9857 9855 9851 9848 9845 9842 9838 9835 9831 9827 9824 9820 9816 9813 9810 9806 9802 9798 9793 9788 9783 9778 9773 9769 9765 9762 9758 9754 9751 9747 9743 9739 9734 9730 9726 9722 9718 9712 9707 9704 9702 9699 9696 9692 9687 9683 9679 9674 9670 9666 9663 9659 9657 9654 9650 9647 9644 9641 9638 9635 9633 9629 9625 9622 9619 9617 9615 9613 9610 9606 9603 9600 9597 9595 9593 9590
9867 9865 9863 9861 9859 9857 9854 9852 9849 9846 9843 9840 9836 9833 9830 9826 9823 9819 9815 9812 9808 9804 9800 9797 9794 9790 9786 9782 9776 9771 9767 9762 9757 9753 9750 9746 9742 9739 9736 9732 9728 9725 9721 9718 9714 9709 9704 9698 9695 9692 9689 9686 9683 9678 9674 9670 9666 9661 9657 9653 9651 9649 9646 9643 9639 9637 9633 9630 9628 9625 9621 9618 9615 9613 9611 9609 9606 9603 9600 9597 9594 9592 9590 9587 9585
9857 9855 9853 9851 9849 9846 9843 9841 9838 9835 9832 9828 9825 9821 9818 9815 9811 9807 9803 9799 9795 9791 9788 9784 9781 9777 9774 9770 9766 9760 9756 9751 9747 9742 9738 9735 9731 9727 9724 9720 9717 9713 9711 9708 9705 9701 9695 9690 9686 9682 9679 9677 9673 9669 9665 9662 9658 9653 9648 9645 9643 9641 9639 9635 9632 9629 9626 9623 9621 9618 9615 9612 9609 9607 9605 9602 9600 9597 9594 9592 9589 9587 9585 9582 9579
9847 9844 9842 9840 9837 9835 9832 9830 9827 9824 9820 9817 9813 9810 9806 9803 9799 9795 9791 9787 9783 9779 9775 9771 9768 9765 9762 9759 9755 9750 9746 9741 9737 9732 9728 9724 9720 9717 9713 9710 9706 9702 9700 9697 9695 9691 9686 9682 9677 9672 9669 9666 9664 9660 9657 9654 9649 9645 9640 9637 9635 9634 9632 9629 9625 9621 9619 9616 9614 9611 9609 9606 9603 9601 9598 9596 9593 9591 9589 9587 9584 9582 9580 9578 9575
9836 9834 9832 9829 9827 9824 9821 9818 9815 9812 9809 9806 9802 9798 9794 9791 9787 9783 9779 9775 9771 9767 9764 9760 9756 9752 9749 9747 9744 9740 9736 9732 9727 9723 9719 9715 9711 9707 9703 9700 9696 9692 9689 9688 9685 9682 9677 9673 9669 9664 9660 9656 9654 9652 9650 9646 9641 9637 9633 9630 9628 9626 9624 9622 9618 9615 9612 9609 9607 9605 9603 9601 9598 9595 9592 9590 9588 9586 9584 9582 9580 9578 9576 9573 9571
9826 9823 9821 9818 9815 9812 9809 9806 9803 9801 9798 9794 9790 9787 9783 9779 9775 9771 9767 9763 9760 9756 9753 9749 9745 9741 9738 9735 9732 9729 9725 9721 9718 9714 9710 9706 9702 9698 9694 9691 9687 9683 9680 9679 9677 9673 9668 9664 9660 9656 9651 9648 9646 9643 9641 9638 9634 9630 9626 9623 9621 9619 9617 9614 9611 9608 9606 9603 9601 9599 9597 9595 9592 9590 9587 9585 9583 9581 9579 9577 9575 9573 9572 9570 9568
9815 9812 9810 9807 9804 9801 9798 9795 9792 9789 9786 9782 9779 9776 9772 9768 9763 9760 9756 9752 9749 9745 9742 9738 9735 9731 9728 9724 9721 9718 9714 9711 9708 9704 9700 9696 9692 9689 9685 9682 9678 9674 9671 9670 9668 9665 9660 9655 9651 9648 9644 9641 9638 9635 9633 9630 9627 9623 9620 9617 9615 9613 9610 9607 9605 9603 9601 9598 9596 9594 9592 9590 9587 9585 9583 9581 9579 9577 9575 9573 9571 9569 9568 9567 9565
9803 9801 9798 9796 9793 9790 9787 9783 9781 9778 9775 9771 9768 9765 9761 9757 9753 9749 9745 9742 9738 9735 9731 9728 9724 9721 9718 9714 9711 9708 9704 9701 9698 9694 9690 9687 9683 9680 9676 9673 9668 9664 9662 9661 9660 9656 9652 9647 9643 9640 9637 9634 9631 9628 9625 9623 9620 9617 9614 9612 9610 9607 9604 9601 9599 9598 9596 9594 9591 9589 9587 9585 9583 9581 9578 9577 9575 9573 9571 9570 9568 9566 9565 9564 9562
9792 9789 9787 9784 9782 9779 9775 9772 9770 9767 9763 9760 9757 9754 9750 9746 9743 9739 9735 9731 9728 9725 9721 9718 9714 9711 9708 9704 9701 9698 9694 9691 9688 9685 9681 9678 9674 9671 9668 9664 9660 9656 9654 9653 9651 9648 9644 9639 9636 9633 9630 9628 9625 9622 9619 9616 9613 9611 9609 9607 9604 9601 9598 9596 9595 9593 9591 9589 9587 9585 9582 9580 9578 9577 9575 9573 9572 9570 9568 9567 9565 9564 9562 9561 9559
9780 9778 9776 9773 9770 9767 9764 9761 9758 9755 9752 9748 9746 9743 9739 9736 9732 9729 9725 9722 9718 9715 9712 9708 9705 9701 9698 9695 9691 9688 9685 9682 9679 9675 9672 9669 9666 9663 9659 9655 9652 9649 9646 9645 9643 9640 9636 9632 9629 9626 9624 9621 9619 9616 9613 9610 9608 9605 9604 9602 9599 9596 9594 9592 9590 9588 9587 9585 9583 9581 9578 9576 9575 9573 9572 9570 9569 9567 9565 9564 9563 9562 9560 9559 9557